Flag for U.S.A. Weather past 2 weeks in Columbus, Georgia, U.S.A.

Now
41 °F

Sunny.


Feels Like: 36 °F
Forecast: 37 / 55 °F
Wind: 8 mph from North

Location: Columbus Metropolitan Airport

Current Time: Jan 30, 2015 at 8:23:48 AM

Latest Report: Jan 30, 2015 at 7:51 AM


Visibility: 10 mi

Pressure: 30.27 "Hg

Humidity: 58%

Dew point: 27 °F

Location of ColumbusLocation

Historic Weather in Columbus — Graph

°F

Columbus temperature yesterday

Maximum temperature yesterday: 62 °F (at 3:51 PM)
Minimum temperature yesterday: 34 °F (at 4:51 AM)
Average temperature yesterday: 48 °F

Past Weeks' High & Low Weather Summary

 TemperatureHumidityPressure
High68 °F (Jan 19, 3:51 PM)100% (Jan 23, 3:51 PM)30.34 "Hg (Jan 23, 3:51 PM)
Low30 °F (Jan 19, 7:51 AM)16% (Jan 19, 4:51 PM)29.75 "Hg (Jan 24, 1:51 AM)
Average47 °F64%30.08 "Hg
* Reported Jan 15 6:51 AM — Jan 30 6:51 AM, Columbus, Weather by CustomWeather, © 2014

Note: Actual official high and low records may vary slightly from our data, if they occured in-between our weather recording intervals... More about our weather records

Advertising

Columbus weather history for previous 24 hours

 ConditionsComfort  
Time TempWeatherWind HumidityBarometerVisibility
6:51 AM
Jan 30
42 °FClear.8 mph60%30.26 "Hg10 mi
5:51 AM45 °FClear.16 mph60%30.23 "Hg10 mi
4:51 AM48 °FPassing clouds.13 mph61%30.19 "Hg10 mi
3:51 AM51 °FClear.13 mph63%30.16 "Hg10 mi
2:51 AM56 °FPassing clouds.15 mph70%30.13 "Hg10 mi
1:51 AM55 °FPassing clouds.6 mph83%30.11 "Hg10 mi
12:51 AM55 °FClear.6 mph80%30.11 "Hg10 mi
11:51 PM
Jan 29
56 °FPassing clouds.7 mph75%30.12 "Hg10 mi
10:51 PM55 °FClear.7 mph72%30.12 "Hg10 mi
9:51 PM55 °FPassing clouds.6 mph64%30.14 "Hg10 mi
8:51 PM55 °FPassing clouds.No wind57%30.16 "Hg10 mi
7:51 PM56 °FClear.5 mph53%30.14 "Hg10 mi
6:51 PM59 °FClear.6 mph44%30.13 "Hg10 mi
5:51 PM60 °FPassing clouds.8 mph39%30.14 "Hg10 mi
4:51 PM61 °FSunny.12 mph35%30.15 "Hg10 mi
3:51 PM62 °FSunny.12 mph32%30.16 "Hg10 mi
2:51 PM60 °FSunny.9 mph32%30.19 "Hg10 mi
1:51 PM56 °FSunny.5 mph39%30.22 "Hg10 mi
12:51 PM55 °FSunny.9 mph40%30.26 "Hg10 mi
11:51 AM52 °FSunny.8 mph47%30.31 "Hg10 mi
10:51 AM47 °FSunny.3 mph54%30.34 "Hg10 mi
9:51 AM44 °FSunny.3 mph63%30.32 "Hg10 mi
8:51 AM37 °FSunny.No wind79%30.32 "Hg9 mi
Weather by CustomWeather, © 2014

See weather overviewHow to use our weather pages